Weather History for Bellefontaine, OH

Change the Weather History Date:

Tuesday, April 9, 2013

  Actual Average (KDAY) Record (KDAY)
Temperature  
Mean Temperature 66 °F 49 °F  
Max Temperature 80 °F 60 °F 84 °F (2001)
Min Temperature 51 °F 39 °F 19 °F (1997)
Degree Days  
Heating Degree Days 0 16  
Month to date heating degree days 156  
Since 1 July heating degree days 5195  
Cooling Degree Days 0 0  
Month to date cooling degree days 0  
Year to date cooling degree days 0  
Growing Degree Days 16 (Base 50)    
Moisture  
Dew Point 51 °F    
Average Humidity 62    
Maximum Humidity 100    
Minimum Humidity 37    
Precipitation  
Precipitation 0.00 in 0.14 in 1.88 in (1929)
Month to date precipitation 1.16  
Year to date precipitation 9.45  
Snow  
Snow 0.00 in 0.10 in 2.80 in (1982)
Month to date snowfall 0.4  
Since 1 July snowfall 23.1  
Snow Depth -    
Sea Level Pressure  
Sea Level Pressure 29.97 in    
Wind  
Wind Speed 9 mph (South)    
Max Wind Speed 29 mph    
Max Gust Speed 39 mph    
Visibility 10 miles    
Events      
T = Trace of Precipitation, MM = Missing Value Source: NWS Daily Summary

Daily Weather History Graph

Daily Weather History Graph

Search for Another Location

Airport:

Trip Planner

Search our weather history database for the weather conditions in past years. The results will help you decide how hot, cold, wet, or windy it might be!

Date:

Astronomy

Apr. 09, 2013 Rise Set
Actual Time 7:05 AM EDT 8:08 PM EDT
Civil Twilight 6:38 AM EDT 8:36 PM EDT
Nautical Twilight 6:04 AM EDT 9:09 PM EDT
Astronomical Twilight 5:30 AM EDT 9:44 PM EDT
Moon 6:28 AM EDT (4/9) 7:43 PM EDT (4/9)
Length of Visible Light 13h 58m
Length of Day
13h 02m
Waning Crescent, 1% of the Moon is Illuminated
Apr 9
Waning Crescent
Apr 10
New
Apr 18
First Quarter
Apr 25
Full
May 2
Last Quarter

Hourly Weather History & Observations

Time (EDT) Temp. Dew Point Humidity Pressure Visibility Wind Dir Wind Speed Gust Speed Precip Events Conditions
12:10 AM 57.2 °F 55.4 °F 94% 29.98 in 10.0 mi SW 3.5 mph - 0.00 in   Partly Cloudy
12:30 AM 59.0 °F 55.4 °F 88% 29.98 in 10.0 mi SW 3.5 mph - 0.00 in   Scattered Clouds
12:50 AM 59.0 °F 53.6 °F 82% 29.99 in 10.0 mi Calm Calm - 0.00 in   Scattered Clouds
1:10 AM 59.0 °F 53.6 °F 82% 29.99 in 10.0 mi SW 3.5 mph - 0.00 in   Mostly Cloudy
1:30 AM 57.2 °F 55.4 °F 94% 30.00 in 10.0 mi NW 3.5 mph - 0.00 in   Mostly Cloudy
1:50 AM 57.2 °F 53.6 °F 88% 30.00 in 10.0 mi Calm Calm - 0.00 in   Mostly Cloudy
2:10 AM 57.2 °F 53.6 °F 88% 30.00 in 10.0 mi Calm Calm - 0.00 in   Mostly Cloudy
2:30 AM 57.2 °F 53.6 °F 88% 30.00 in 10.0 mi Calm Calm - 0.00 in   Scattered Clouds
2:50 AM 57.2 °F 55.4 °F 94% 30.00 in 10.0 mi Calm Calm - 0.00 in   Clear
3:10 AM 57.2 °F 53.6 °F 88% 30.00 in 10.0 mi Calm Calm - 0.00 in   Clear
3:30 AM 55.4 °F 55.4 °F 100% 30.00 in 10.0 mi Calm Calm - 0.00 in   Mostly Cloudy
3:50 AM 55.4 °F 55.4 °F 100% 30.00 in 10.0 mi ENE 3.5 mph - 0.00 in   Scattered Clouds
4:10 AM 53.6 °F 53.6 °F 100% 30.01 in 10.0 mi ENE 4.6 mph - 0.00 in   Clear
4:30 AM 53.6 °F 53.6 °F 100% 30.02 in 10.0 mi NE 3.5 mph - 0.00 in   Partly Cloudy
4:50 AM 53.6 °F 53.6 °F 100% 30.02 in 10.0 mi East 6.9 mph - 0.00 in   Scattered Clouds
5:10 AM 53.6 °F 51.8 °F 94% 30.02 in 10.0 mi ENE 4.6 mph - 0.00 in   Partly Cloudy
5:30 AM 53.6 °F 46.4 °F 77% 30.02 in 10.0 mi East 6.9 mph - 0.00 in   Clear
5:50 AM 53.6 °F 44.6 °F 72% 30.02 in 10.0 mi ENE 4.6 mph - 0.00 in   Clear
6:10 AM 51.8 °F 44.6 °F 76% 30.03 in 10.0 mi SE 3.5 mph - 0.00 in   Clear
6:30 AM 53.6 °F 44.6 °F 72% 30.03 in 10.0 mi East 4.6 mph - 0.00 in   Partly Cloudy
6:50 AM 55.4 °F 42.8 °F 63% 30.03 in 10.0 mi East 5.8 mph - 0.00 in   Clear
7:10 AM 55.4 °F 42.8 °F 63% 30.03 in 10.0 mi East 8.1 mph - 0.00 in   Scattered Clouds
7:30 AM 55.4 °F 42.8 °F 63% 30.03 in 10.0 mi East 8.1 mph - 0.00 in   Mostly Cloudy
7:50 AM 55.4 °F 42.8 °F 63% 30.03 in 10.0 mi ESE 8.1 mph - 0.00 in   Clear
8:10 AM 55.4 °F 42.8 °F 63% 30.04 in 10.0 mi ESE 8.1 mph - 0.00 in   Clear
8:30 AM 57.2 °F 42.8 °F 59% 30.04 in 10.0 mi ESE 8.1 mph - 0.00 in   Clear
8:50 AM 59.0 °F 44.6 °F 59% 30.04 in 10.0 mi SE 9.2 mph - 0.00 in   Clear
9:10 AM 60.8 °F 46.4 °F 59% 30.03 in 10.0 mi SE 11.5 mph - 0.00 in   Clear
9:30 AM 59.0 °F 48.2 °F 67% 30.03 in 10.0 mi SE 10.4 mph - 0.00 in   Clear
9:50 AM 62.6 °F 51.8 °F 68% 30.02 in 10.0 mi SE 12.7 mph - 0.00 in   Clear
10:10 AM 64.4 °F 53.6 °F 68% 30.02 in 10.0 mi SE 9.2 mph - 0.00 in   Clear
10:30 AM 66.2 °F 53.6 °F 64% 30.02 in 10.0 mi South 11.5 mph - 0.00 in   Clear
10:50 AM 69.8 °F 53.6 °F 56% 30.02 in 10.0 mi South 13.8 mph 17.3 mph 0.00 in   Clear
11:10 AM 69.8 °F 53.6 °F 56% 30.01 in 10.0 mi SSE 11.5 mph - 0.00 in   Clear
11:30 AM 71.6 °F 53.6 °F 53% 30.00 in 10.0 mi South 12.7 mph 18.4 mph 0.00 in   Clear
11:50 AM 73.4 °F 53.6 °F 50% 29.99 in 10.0 mi South 18.4 mph 24.2 mph 0.00 in   Clear
12:10 PM 73.4 °F 53.6 °F 50% 29.98 in 10.0 mi South 19.6 mph - 0.00 in   Clear
12:30 PM 75.2 °F 53.6 °F 47% 29.97 in 10.0 mi SSW 21.9 mph 26.5 mph 0.00 in   Clear
12:50 PM 75.2 °F 53.6 °F 47% 29.96 in 10.0 mi South 19.6 mph 26.5 mph 0.00 in   Partly Cloudy
1:10 PM 77.0 °F 53.6 °F 44% 29.95 in 10.0 mi SSW 19.6 mph 28.8 mph 0.00 in   Partly Cloudy
1:30 PM 78.8 °F 53.6 °F 42% 29.94 in 10.0 mi SSW 27.6 mph 33.4 mph 0.00 in   Partly Cloudy
1:50 PM 77.0 °F 53.6 °F 44% 29.93 in 10.0 mi SSW 20.7 mph 31.1 mph 0.00 in   Scattered Clouds
2:10 PM 78.8 °F 53.6 °F 42% 29.92 in 10.0 mi SSW 21.9 mph 32.2 mph 0.00 in   Partly Cloudy
2:30 PM 78.8 °F 53.6 °F 42% 29.91 in 10.0 mi SSW 28.8 mph 32.2 mph 0.00 in   Partly Cloudy
2:50 PM 78.8 °F 53.6 °F 42% 29.91 in 10.0 mi SSW 27.6 mph 35.7 mph 0.00 in   Scattered Clouds
3:10 PM 78.8 °F 53.6 °F 42% 29.90 in 10.0 mi SSW 25.3 mph 32.2 mph 0.00 in   Mostly Cloudy
3:30 PM 78.8 °F 51.8 °F 39% 29.89 in 10.0 mi SSW 23.0 mph 39.1 mph 0.00 in   Scattered Clouds
3:50 PM 80.6 °F 51.8 °F 37% 29.89 in 10.0 mi SSW 25.3 mph 33.4 mph 0.00 in   Partly Cloudy
4:10 PM 78.8 °F 53.6 °F 42% 29.89 in 10.0 mi SW 28.8 mph 34.5 mph 0.00 in   Mostly Cloudy
4:30 PM 78.8 °F 51.8 °F 39% 29.89 in 10.0 mi SSW 25.3 mph 31.1 mph 0.00 in   Scattered Clouds
4:50 PM 78.8 °F 51.8 °F 39% 29.90 in 10.0 mi SSW 25.3 mph 31.1 mph 0.00 in   Scattered Clouds
5:10 PM 78.8 °F 51.8 °F 39% 29.90 in 10.0 mi SW 18.4 mph 26.5 mph 0.00 in   Scattered Clouds
5:30 PM 78.8 °F 51.8 °F 39% 29.89 in 10.0 mi SW 23.0 mph 35.7 mph 0.00 in   Partly Cloudy
5:50 PM 78.8 °F 51.8 °F 39% 29.90 in 10.0 mi SSW 20.7 mph 26.5 mph 0.00 in   Partly Cloudy
6:10 PM 77.0 °F 53.6 °F 44% 29.89 in 10.0 mi SW 24.2 mph 29.9 mph 0.00 in   Scattered Clouds
6:30 PM 78.8 °F 51.8 °F 39% 29.89 in 10.0 mi SW 19.6 mph 27.6 mph 0.00 in   Scattered Clouds
6:50 PM 77.0 °F 50.0 °F 39% 29.89 in 10.0 mi SW 20.7 mph - 0.00 in   Partly Cloudy
7:10 PM 75.2 °F 51.8 °F 44% 29.90 in 10.0 mi SSW 20.7 mph 26.5 mph 0.00 in   Partly Cloudy
7:30 PM 73.4 °F 51.8 °F 47% 29.90 in 10.0 mi SW 16.1 mph - 0.00 in   Partly Cloudy
7:50 PM 71.6 °F 51.8 °F 50% 29.90 in 10.0 mi SSW 12.7 mph - 0.00 in   Partly Cloudy
8:10 PM 71.6 °F 51.8 °F 50% 29.91 in 10.0 mi SW 11.5 mph - 0.00 in   Scattered Clouds
8:30 PM 69.8 °F 51.8 °F 53% 29.91 in 10.0 mi SSW 8.1 mph - 0.00 in   Partly Cloudy
8:50 PM 69.8 °F 51.8 °F 53% 29.92 in 10.0 mi SSW 10.4 mph - 0.00 in   Clear
9:10 PM 66.2 °F 51.8 °F 60% 29.93 in 10.0 mi SSW 8.1 mph - 0.00 in   Clear
9:30 PM 66.2 °F 51.8 °F 60% 29.93 in 10.0 mi SW 5.8 mph - 0.00 in   Clear
9:50 PM 64.4 °F 51.8 °F 64% 29.93 in 10.0 mi SSW 4.6 mph - 0.00 in   Clear
10:10 PM 64.4 °F 51.8 °F 64% 29.93 in 10.0 mi SSW 3.5 mph - 0.00 in   Clear
10:50 PM 62.6 °F 51.8 °F 68% 29.93 in 10.0 mi South 5.8 mph - 0.00 in   Clear
11:10 PM 64.4 °F 53.6 °F 68% 29.93 in 10.0 mi South 9.2 mph - 0.00 in   Scattered Clouds
11:30 PM 66.2 °F 53.6 °F 64% 29.92 in 10.0 mi SSW 9.2 mph - 0.00 in   Scattered Clouds
11:50 PM 66.2 °F 53.6 °F 64% 29.92 in 10.0 mi South 10.4 mph - 0.00 in   Partly Cloudy